Time,TemperatureF,DewpointF,PressureIn,WindDirection,WindDirectionDegrees,WindSpeedMPH,WindSpeedGustMPH,Humidity,HourlyPrecipIn,Conditions,Clouds,dailyrainin,SolarRadiationWatts/m^2,SoftwareType,DateUTC
2013-06-18 00:01:00,79.0,68.0,30.03,West,264,1.0,5.0,70,0.00,,,0.00,0.000000,,2013-06-18 10:01:00,
2013-06-18 00:11:00,79.0,68.0,30.03,West,264,1.0,5.0,70,0.00,,,0.00,0.000000,,2013-06-18 10:11:00,
2013-06-18 00:43:00,78.0,68.0,30.02,West,272,2.0,4.0,71,0.00,,,0.00,0.000000,,2013-06-18 10:43:00,
2013-06-18 00:53:00,78.0,68.0,30.02,West,272,2.0,4.0,71,0.00,,,0.00,0.000000,,2013-06-18 10:53:00,
2013-06-18 01:02:00,78.0,68.0,30.02,West,272,2.0,4.0,71,0.00,,,0.00,0.000000,,2013-06-18 11:02:00,
2013-06-18 01:11:00,78.0,68.0,30.02,West,272,2.0,4.0,71,0.00,,,0.00,0.000000,,2013-06-18 11:11:00,
2013-06-18 01:43:00,77.0,68.0,30.00,West,280,3.0,5.0,73,0.00,,,-99.99,0.000000,,2013-06-18 11:43:00,
2013-06-18 01:52:00,77.0,68.0,30.00,West,280,3.0,5.0,73,0.00,,,-99.99,0.000000,,2013-06-18 11:52:00,
2013-06-18 02:01:00,77.0,68.0,30.00,West,280,3.0,5.0,73,0.00,,,-99.99,0.000000,,2013-06-18 12:01:00,
2013-06-18 02:11:00,77.0,68.0,30.00,West,280,3.0,5.0,73,0.00,,,-99.99,0.000000,,2013-06-18 12:11:00,
2013-06-18 02:43:00,76.0,68.0,29.98,West,271,1.0,4.0,77,0.00,,,0.00,0.000000,,2013-06-18 12:43:00,
2013-06-18 02:52:00,76.0,68.0,29.98,West,271,1.0,4.0,77,0.00,,,0.00,0.000000,,2013-06-18 12:52:00,
2013-06-18 03:02:00,76.0,68.0,29.98,West,271,1.0,4.0,77,0.00,,,0.00,0.000000,,2013-06-18 13:02:00,
2013-06-18 03:11:00,76.0,68.0,29.98,West,271,1.0,4.0,77,0.00,,,0.00,0.000000,,2013-06-18 13:11:00,
2013-06-18 03:43:00,73.0,66.0,29.97,ENE,62,4.0,5.0,80,0.00,,,0.00,0.000000,,2013-06-18 13:43:00,
2013-06-18 03:53:00,73.0,66.0,29.97,ENE,62,4.0,5.0,80,0.00,,,0.00,0.000000,,2013-06-18 13:53:00,
2013-06-18 04:02:00,73.0,66.0,29.97,ENE,62,4.0,5.0,80,0.00,,,0.00,0.000000,,2013-06-18 14:02:00,
2013-06-18 04:11:00,73.0,66.0,29.97,ENE,62,4.0,5.0,80,0.00,,,0.00,0.000000,,2013-06-18 14:11:00,
2013-06-18 04:43:00,72.0,65.0,29.97,East,98,3.0,5.0,80,0.00,,,0.00,0.000000,,2013-06-18 14:43:00,
2013-06-18 04:53:00,72.0,65.0,29.97,East,98,3.0,5.0,80,0.00,,,0.00,0.000000,,2013-06-18 14:53:00,
2013-06-18 05:02:00,72.0,65.0,29.97,East,98,3.0,5.0,80,0.00,,,0.00,0.000000,,2013-06-18 15:02:00,
2013-06-18 05:11:00,72.0,65.0,29.97,East,98,3.0,5.0,80,0.00,,,0.00,0.000000,,2013-06-18 15:11:00,
2013-06-18 05:43:00,72.0,63.0,29.97,East,94,3.0,6.0,74,0.00,,,0.00,0.000000,,2013-06-18 15:43:00,
2013-06-18 05:53:00,72.0,63.0,29.97,East,94,3.0,6.0,74,0.00,,,0.00,0.000000,,2013-06-18 15:53:00,
2013-06-18 06:01:00,72.0,63.0,29.97,East,94,3.0,6.0,74,0.00,,,0.00,0.000000,,2013-06-18 16:01:00,
2013-06-18 06:11:00,72.0,63.0,29.97,East,94,3.0,6.0,74,0.00,,,0.00,0.000000,,2013-06-18 16:11:00,
2013-06-18 06:43:00,72.0,63.0,29.99,SE,133,1.0,7.0,73,0.00,,,0.00,5.000000,,2013-06-18 16:43:00,
2013-06-18 06:53:00,72.0,63.0,29.99,SE,133,1.0,7.0,73,0.00,,,0.00,5.000000,,2013-06-18 16:53:00,
2013-06-18 07:02:00,72.0,63.0,29.99,SE,133,1.0,7.0,73,0.00,,,0.00,5.000000,,2013-06-18 17:02:00,
2013-06-18 07:11:00,72.0,63.0,29.99,SE,133,1.0,7.0,73,0.00,,,0.00,5.000000,,2013-06-18 17:11:00,
2013-06-18 07:43:00,79.0,64.0,30.01,SE,145,5.0,8.0,60,0.00,,,0.00,96.000000,,2013-06-18 17:43:00,
2013-06-18 07:53:00,79.0,64.0,30.01,SE,145,5.0,8.0,60,0.00,,,0.00,96.000000,,2013-06-18 17:53:00,
2013-06-18 08:01:00,79.0,64.0,30.01,SE,145,5.0,8.0,60,0.00,,,0.00,96.000000,,2013-06-18 18:01:00,
2013-06-18 08:11:00,79.0,64.0,30.01,SE,145,5.0,8.0,60,0.00,,,0.00,96.000000,,2013-06-18 18:11:00,
2013-06-18 08:42:00,82.0,64.0,30.01,SE,139,6.0,11.0,55,0.00,,,0.00,295.000000,,2013-06-18 18:42:00,
2013-06-18 08:53:00,82.0,64.0,30.01,SE,139,6.0,11.0,55,0.00,,,0.00,295.000000,,2013-06-18 18:53:00,
2013-06-18 09:01:00,82.0,64.0,30.01,SE,139,6.0,11.0,55,0.00,,,0.00,295.000000,,2013-06-18 19:01:00,
2013-06-18 09:11:00,82.0,64.0,30.01,SE,139,6.0,11.0,55,0.00,,,0.00,295.000000,,2013-06-18 19:11:00,
2013-06-18 09:43:00,84.0,65.0,30.02,South,171,7.0,10.0,53,0.00,,,0.00,561.000000,,2013-06-18 19:43:00,
2013-06-18 09:52:00,84.0,65.0,30.02,South,171,7.0,10.0,53,0.00,,,0.00,561.000000,,2013-06-18 19:52:00,
2013-06-18 10:01:00,84.0,65.0,30.02,South,171,7.0,10.0,53,0.00,,,0.00,561.000000,,2013-06-18 20:01:00,
2013-06-18 10:11:00,84.0,65.0,30.02,South,171,7.0,10.0,53,0.00,,,0.00,561.000000,,2013-06-18 20:11:00,
2013-06-18 10:43:00,84.0,64.0,30.02,South,190,7.0,11.0,51,0.00,,,0.00,638.000000,,2013-06-18 20:43:00,
2013-06-18 10:52:00,84.0,64.0,30.02,South,190,7.0,11.0,51,0.00,,,0.00,638.000000,,2013-06-18 20:52:00,
2013-06-18 11:01:00,84.0,64.0,30.02,South,190,7.0,11.0,51,0.00,,,0.00,638.000000,,2013-06-18 21:01:00,
2013-06-18 11:11:00,84.0,64.0,30.02,South,190,7.0,11.0,51,0.00,,,0.00,638.000000,,2013-06-18 21:11:00,
2013-06-18 11:43:00,83.0,67.0,30.02,WSW,245,5.0,10.0,59,0.00,,,0.00,483.000000,,2013-06-18 21:43:00,
2013-06-18 11:52:00,83.0,67.0,30.02,WSW,245,5.0,10.0,59,0.00,,,0.00,483.000000,,2013-06-18 21:52:00,
2013-06-18 12:01:00,83.0,67.0,30.02,WSW,245,5.0,10.0,59,0.00,,,0.00,483.000000,,2013-06-18 22:01:00,
2013-06-18 12:11:00,83.0,67.0,30.02,WSW,245,5.0,10.0,59,0.00,,,0.00,483.000000,,2013-06-18 22:11:00,
2013-06-18 12:43:00,82.0,68.0,30.00,WSW,245,7.0,10.0,62,0.00,,,0.00,530.000000,,2013-06-18 22:43:00,
2013-06-18 12:53:00,82.0,68.0,30.00,WSW,245,7.0,10.0,62,0.00,,,0.00,530.000000,,2013-06-18 22:53:00,
2013-06-18 13:01:00,82.0,68.0,30.00,WSW,245,7.0,10.0,62,0.00,,,0.00,530.000000,,2013-06-18 23:01:00,
2013-06-18 13:11:00,82.0,68.0,30.00,WSW,245,7.0,10.0,62,0.00,,,0.00,530.000000,,2013-06-18 23:11:00,
2013-06-18 13:48:00,83.0,68.0,30.00,WSW,240,7.0,10.0,61,0.00,,,0.00,674.000000,,2013-06-18 23:48:00,
2013-06-18 13:53:00,83.0,68.0,30.00,WSW,240,7.0,10.0,61,0.00,,,0.00,674.000000,,2013-06-18 23:53:00,
2013-06-18 14:01:00,83.0,68.0,30.00,WSW,240,7.0,10.0,61,0.00,,,0.00,674.000000,,2013-06-19 00:01:00,
2013-06-18 14:11:00,83.0,68.0,30.00,WSW,240,7.0,10.0,61,0.00,,,0.00,674.000000,,2013-06-19 00:11:00,
2013-06-18 14:43:00,81.0,-99.9,-100.00,WSW,241,6.0,-999.0,-999,0.00,,,0.00,,,2013-06-19 00:43:00,
2013-06-18 14:53:00,81.0,-99.9,-100.00,WSW,241,6.0,-999.0,-999,0.00,,,0.00,,,2013-06-19 00:53:00,
2013-06-18 15:02:00,81.0,-99.9,-100.00,WSW,241,6.0,-999.0,-999,0.00,,,0.00,,,2013-06-19 01:02:00,
2013-06-18 15:11:00,81.0,-99.9,-100.00,WSW,241,6.0,-999.0,-999,0.00,,,0.00,,,2013-06-19 01:11:00,
2013-06-18 15:43:00,81.0,69.0,29.98,SW,233,6.0,9.0,66,0.00,,,0.00,199.000000,,2013-06-19 01:43:00,
2013-06-18 15:53:00,81.0,69.0,29.98,SW,233,6.0,9.0,66,0.00,,,0.00,199.000000,,2013-06-19 01:53:00,
2013-06-18 16:01:00,81.0,69.0,29.98,SW,233,6.0,9.0,66,0.00,,,0.00,199.000000,,2013-06-19 02:01:00,
2013-06-18 16:11:00,81.0,69.0,29.98,SW,233,6.0,9.0,66,0.00,,,0.00,199.000000,,2013-06-19 02:11:00,
2013-06-18 16:43:00,-999.0,-99.9,-100.00,North,-999,7.0,-999.0,-999,0.00,,,0.00,,,2013-06-19 02:43:00,
2013-06-18 16:52:00,-999.0,-99.9,-100.00,North,-999,7.0,-999.0,-999,0.00,,,0.00,,,2013-06-19 02:52:00,
2013-06-18 17:01:00,-999.0,-99.9,-100.00,North,-999,7.0,-999.0,-999,0.00,,,0.00,,,2013-06-19 03:01:00,
2013-06-18 17:12:00,-999.0,-99.9,-100.00,North,-999,7.0,-999.0,-999,0.00,,,0.00,,,2013-06-19 03:12:00,
2013-06-18 17:43:00,80.0,68.0,29.97,South,190,6.0,9.0,66,0.00,,,0.00,66.000000,,2013-06-19 03:43:00,
2013-06-18 17:52:00,80.0,68.0,29.97,South,190,6.0,9.0,66,0.00,,,0.00,66.000000,,2013-06-19 03:52:00,
2013-06-18 18:01:00,80.0,68.0,29.97,South,190,6.0,9.0,66,0.00,,,0.00,66.000000,,2013-06-19 04:01:00,
2013-06-18 18:11:00,80.0,68.0,29.97,South,190,6.0,9.0,66,0.00,,,0.00,66.000000,,2013-06-19 04:11:00,
2013-06-18 18:43:00,80.0,68.0,29.98,SE,127,5.0,9.0,66,0.00,,,0.00,48.000000,,2013-06-19 04:43:00,
2013-06-18 18:53:00,80.0,68.0,29.98,SE,127,5.0,9.0,66,0.00,,,0.00,48.000000,,2013-06-19 04:53:00,
2013-06-18 19:01:00,80.0,68.0,29.98,SE,127,5.0,9.0,66,0.00,,,0.00,48.000000,,2013-06-19 05:01:00,
2013-06-18 19:11:00,80.0,68.0,29.98,SE,127,5.0,9.0,66,0.00,,,0.00,48.000000,,2013-06-19 05:11:00,
2013-06-18 19:43:00,79.0,67.0,30.00,ESE,117,2.0,9.0,67,0.00,,,0.00,13.000000,,2013-06-19 05:43:00,
2013-06-18 19:52:00,79.0,67.0,30.00,ESE,117,2.0,9.0,67,0.00,,,0.00,13.000000,,2013-06-19 05:52:00,
2013-06-18 20:01:00,79.0,67.0,30.00,ESE,117,2.0,9.0,67,0.00,,,0.00,13.000000,,2013-06-19 06:01:00,
2013-06-18 20:11:00,79.0,67.0,30.00,ESE,117,2.0,9.0,67,0.00,,,0.00,13.000000,,2013-06-19 06:11:00,
2013-06-18 20:43:00,79.0,67.0,30.01,ESE,121,4.0,5.0,66,0.00,,,0.00,0.000000,,2013-06-19 06:43:00,
2013-06-18 20:52:00,79.0,67.0,30.01,ESE,121,4.0,5.0,66,0.00,,,0.00,0.000000,,2013-06-19 06:52:00,
2013-06-18 21:01:00,79.0,67.0,30.01,ESE,121,4.0,5.0,66,0.00,,,0.00,0.000000,,2013-06-19 07:01:00,
2013-06-18 21:11:00,79.0,67.0,30.01,ESE,121,4.0,5.0,66,0.00,,,0.00,0.000000,,2013-06-19 07:11:00,
2013-06-18 21:43:00,78.0,65.0,30.02,SE,142,3.0,6.0,65,0.00,,,0.00,0.000000,,2013-06-19 07:43:00,
2013-06-18 21:53:00,78.0,65.0,30.02,SE,142,3.0,6.0,65,0.00,,,0.00,0.000000,,2013-06-19 07:53:00,
2013-06-18 22:02:00,78.0,65.0,30.02,SE,142,3.0,6.0,65,0.00,,,0.00,0.000000,,2013-06-19 08:02:00,
2013-06-18 22:11:00,78.0,65.0,30.02,SE,142,3.0,6.0,65,0.00,,,0.00,0.000000,,2013-06-19 08:11:00,
2013-06-18 22:43:00,-999.0,-99.9,-100.00,NE,46,4.0,-999.0,-999,0.00,,,0.00,,,2013-06-19 08:43:00,
2013-06-18 22:54:00,-999.0,-99.9,-100.00,NE,46,4.0,-999.0,-999,0.00,,,0.00,,,2013-06-19 08:54:00,
2013-06-18 23:02:00,-999.0,-99.9,-100.00,NE,46,4.0,-999.0,-999,0.00,,,0.00,,,2013-06-19 09:02:00,
2013-06-18 23:12:00,-999.0,-99.9,-100.00,NE,46,4.0,-999.0,-999,0.00,,,0.00,,,2013-06-19 09:12:00,
2013-06-18 23:44:00,77.0,65.0,30.03,ENE,75,2.0,6.0,66,0.00,,,0.00,0.000000,,2013-06-19 09:44:00,
2013-06-18 23:53:00,77.0,65.0,30.03,ENE,75,2.0,6.0,66,0.00,,,0.00,0.000000,,2013-06-19 09:53:00,